STARLINK-3354, 51146

Orbit data source: Space-Track

STARLINK-3354, 51146 is a payload satellite owned by SpaceX/Seattle (US) in LEO that was launched on Wed, 19 Jan 2022 UTC via an FALCON 9 launch vehicle from the Air Force Eastern Test Range (AFETR). Payload-class satellites include a variety of spacecraft equipped with specific instruments for various scientific and technological missions. These include communications satellites like Starlink; space stations such as the ISS; scientific satellites like the Hubble; Earth observation satellites from companies like Planet Labs, Umbra, and HawkEye 360; GPS; miniature CubeSats for education and research; and military/defense satellites.

Loading next visibility...
Identifier
51146, 2022-005AU
Orbit
LEO
Country
Flag of USUS
Related business
Manufacturer
SpaceX/Seattle
Mission
Operational Commercial Communications
Bus & Motor
STARLINK, Unknown motor
Mass
297 kg wet, ~275 kg dry
Launch date (UTC)
2022-01-19 (4 years ago)
Launch vehicle
FALCON 9
Launch site
Air Force Eastern Test Range (AFETR)
Object type
Payload
Rocket body
Debris
Shape & HBR
Box + 1 Pan, 10.1 m
Radar Cross Section
13.562 m², Large (>1 m²)

Expand to show TLE details & history
Last TLE update: 1 day ago

TLE from 1 day ago
0 STARLINK-3354
1 51146U 22005AU  26093.55381966 -.00000771  00000-0 -30381-4 0  9995
2 51146  53.2171 187.5100 0001208  86.5827 273.5303 15.08850531232485
Epoch: 2026-04-03T13:17Z
TLE epoch observation values (Epoch: 2026-04-03T13:17:30.018Z)
Latitude
-0.00006°
Longitude
156.2486°
Altitude
540.557 km
Speed
7.593 km/s
True Right ascension
12h 30m 02s
True Declination
0° 00' 00"
Sunlit
Object was in full shadow at epoch
Visualization orbit readout
Latitude
Unknown
Longitude
Unknown
Altitude
Unknown
Speed
Unknown
Apparent Right ascension
Unknown
Apparent Declination
Unknown
Sunlit
N/A
Visualization observer readout
Local Sidereal Time
01:55:05
Azimuth
Unknown
Elevation
Unknown
Doppler factor
Unknown
Orbital elements
Apogee altitude
540.792 km
Perigee altitude
539.12 km
Semi-major axis
6,918.093 km
Eccentricity
0.00012
Inclination
53.2171°
RAAN
187.51°
Arg. of periapsis
86.5827°
True anomaly
273.51648°
Mean anomaly
273.5303°
Eccentric anomaly
273.52339°
Mean motion
3.77193 °/min
Orbital period
95.44 mins
BSTAR
-0.000030381
Loading maneuver chart data...
Computing Atmospheric mass density...
Loading historical data...
Loading historical data...
Loading historical data...
Loading historical data...
Loading historical data...
Loading historical data...
Loading historical data...

Documentation

Showing up to 5 results
|